Regional Weather Roundup
Issued by NWS Grand Forks, ND

Home | Current Version | Previous Version | Graphics & Text | Print | Product List | Glossary On
Versions: 1 2 3 4 5 6 7 8 9 10 11 12 13 14 15 16 17 18 19 20 21 22 23 24 25 26 27 28 29 30 31 32 33 34 35 36 37 38 39 40 41 42 43 44 45 46 47 48 49 50
000
ASUS43 KFGF 292231
RWRFGF
PRAIRIE TO PINES  WEATHER ROUNDUP
NATIONAL WEATHER SERVICE EASTERN NORTH DAKOTA/GRAND FORKS ND
500 PM CDT MON AUG 29 2016

 **SATELLITE DATA USED TO AUGMENT SKY COVER AT AUTOMATED STATIONS**
 *****  WEATHER ACROSS EASTERN NORTH DAKOTA  *****

CITY           SKY/WX    TMP DP  RH WIND       PRES   REMARKS
GRAND FORKS    MOSUNNY   80  54  40 NW10      30.14S
GRAND FRKS AFB SUNNY     79  51  36 N12       30.16
GRAND FRKS NWS   N/A     81 N/A N/A NW15        N/A
DEVILS LAKE    SUNNY     75  48  38 NW13      30.21F
FARGO          SUNNY     82  65  56 N13       30.15R
WAHPETON ARPT  MOCLDY    82  66  57 N12       30.13S
$$

 ***** WEATHER ACROSS CENTRAL AND WESTERN NORTH DAKOTA  *****

CITY           SKY/WX    TMP DP  RH WIND       PRES   REMARKS
BISMARCK       SUNNY     81  50  33 NE9       30.22F
MINOT          SUNNY     79  43  27 N8        30.23F
JAMESTOWN      SUNNY     78  57  48 NW13      30.19S
MINOT AFB      SUNNY     76  42  30 NW5       30.22F
GARRISON         N/A     79  42  26 N6        30.24F
WILLISTON      SUNNY     80  42  25 SE6       30.24F
DICKINSON      SUNNY     79  41  25 VRB5      30.24F
HETTINGER      SUNNY     82  47  29 E9        30.26F
$$

 *****  OTHER AIRPORT OBSERVATIONS IN OUR AREA  *****

CITY           SKY/WX    TMP DP  RH WIND       PRES   REMARKS
WALHALLA       FAIR      72  68  88 NW10G20   30.18F
GRAFTON AIRPOR FAIR      77  52  41 NW13G18   30.18S
VALLEY CITY AR FAIR      77  61  57 N9        30.21R
CANDO          FAIR      75  46  35 NW9       30.23F
CAVALIER APRT  FAIR      73  52  46 NW10      30.18R
GWINNER        FAIR      81  68  65 N9        30.17R
SHEYENNE NWR     N/A     81  65  58 NE8       29.95S
ROLLA          FAIR      70  46  43 NW9       30.24S
 ***** THE ABOVE OBSERVATIONS ARE NON NWS ARE NOT QUALITY
       CONTROLLED AND MAY MIS-REPORT RAIN FOR SNOW...
$$

  *****  WEATHER ACROSS NORTHERN MINNESOTA  *****

CITY           SKY/WX    TMP DP  RH WIND       PRES   REMARKS
FLAG ISLAND    SUNNY     73  57  56 NW6       30.11S
WARROAD        SUNNY     77  63  61 W8        30.14R
ROSEAU         SUNNY     77  61  57 W13       30.14S
HALLOCK        SUNNY     75  54  46 NW10      30.16S
THF RVR FALLS  SUNNY     76  59  55 NW13      30.17R
BAUDETTE       PTSUNNY   79  62  56 W8        30.11S
WASKISH        SUNNY     77  66  69 SW9       30.12S
CROOKSTON      SUNNY     79  59  50 N9        30.16R
STEPHEN NDAWN    N/A     75  54  46 NW12        N/A
GREENBUSH NDAW   N/A     75  54  46 W13         N/A
$$
  *****  WEATHER ACROSS CENTRAL AND WEST MINNESOTA  *****

CITY           SKY/WX    TMP DP  RH WIND       PRES   REMARKS
FOSSTON        SUNNY     79  61  53 NW8       30.17R
BEMIDJI        MOSUNNY   77  65  67 NW12      30.15S
PARK RAPIDS    MOSUNNY   82  69  64 W8        30.14S
ELBOW LAKE     MOCLDY    82  71  71 NW5       30.14R HAZE
WADENA         MOSUNNY   81  70  69 W5        30.14S
DETROIT LAKES  PTSUNNY   75  68  78 N10       30.18R
MOORHEAD       SUNNY     81  63  54 N10       30.16R
FERGUS FALLS   MOSUNNY   82  70  65 N6        30.14R
MORRIS MN      NOT AVBL
STAPLES        MOSUNNY   82  66  57 W8        30.14S
$$
  *****  WEATHER ELSEWHERE ACROSS MINNESOTA  *****

CITY           SKY/WX    TMP DP  RH WIND       PRES   REMARKS
DULUTH         MOSUNNY   80  67  64 W12       30.13F
INTRNTL FALLS  SUNNY     78  65  63 NW12G18   30.10S
ELY            CLOUDY    75  66  73 W8        30.13R
CLOQUET        SUNNY     82  64  54 SW8       30.14S
WHEATON        SUNNY     86  72  62 NW5       30.13S HX  92
BRAINERD       CLOUDY    82  68  62 NW7       30.14S
HIBBING        CLOUDY    77  69  76 NW6       30.13S
ALEXANDRIA     MOSUNNY   83  70  64 SW6       30.15F
SAINT CLOUD    CLOUDY    84  74  71 S13       30.13S HX  91
MINNEAPOLIS    PTSUNNY   85  70  60 SW10      30.13F
$$

  *****  WEATHER ACROSS SOUTH DAKOTA  *****

CITY           SKY/WX    TMP DP  RH WIND       PRES   REMARKS
SIOUX FALLS    CLOUDY    83  70  64 S9        30.14S
BROOKINGS      MOSUNNY   84  71  65 S15       30.14F
WATERTOWN      CLOUDY    86  67  52 SW10      30.14S
HURON          CLOUDY    88  68  51 S12       30.09F HX  91
SISSETON         N/A     85  71  63 NE9       30.12S HX  90
ABERDEEN       MOSUNNY   85  69  58 N10       30.14S
MITCHELL       PTSUNNY   86  66  51 S8        30.10F
PIERRE         SUNNY     90  63  40 NE9       30.10F HX  91
MOBRIDGE       SUNNY     87  50  27 NE15      30.15F
RAPID CITY     SUNNY     83  56  39 E7        30.23F
$$

  *****  SOME WEATHER IN NEARBY STATES *****

CITY           SKY/WX    TMP DP  RH WIND       PRES   REMARKS
GLASGOW MT     SUNNY     82  46  28 SE13      30.19F
GREAT FALLS MT CLOUDY    88  39  17 NE8       30.13F
CHEYENNE WY    CLOUDY    78  37  22 E13G23    30.33S
SCOTTSBLUFF NE CLOUDY    88  47  24 E13       30.22S
OMAHA NE       CLOUDY    84  74  71 NE3       30.11S HX  91
DES MOINES IA  CLOUDY    82  74  76 NE7       30.15S
DAVENPORT IA   PTSUNNY   74  66  76 N7        30.18F
CHICAGO IL     CLOUDY    77  72  84 N6        30.18F
EAU CLAIRE WI  MOSUNNY   84  71  65 SW8G20    30.15R
LA CROSSE WI   CLOUDY    83  73  72 S8        30.15F
$$

  *****  SOME NATIONAL WEATHER *****

CITY           SKY/WX    TMP DP  RH WIND       PRES   REMARKS
LA GUARDIA NY  MOSUNNY   89  58  34 N9        30.06R
RALEIGH NC     PTSUNNY   87  63  44 NE7       30.09S
ATLANTA GA     MOSUNNY   89  67  47 NE15      30.06F HX  92
NEW ORLEANS LA CLOUDY    91  74  57 E12G18    29.94R HX 100
OKLAHOMA CITY  LGT RAIN  83  68  60 E12       30.06F
ALBUQUERQUE NM MOSUNNY   79  46  31 E14       30.21F
SALT LAKE CITY MOSUNNY   95  28   9 NW12      30.13F
LOS ANGELES CA MOSUNNY   77  61  57 W15       29.89F
BOISE ID       SUNNY     90  43  19 NW6       30.04F
SEATTLE WA     MOSUNNY   76  52  43 S9        30.01F
$$

*** WEATHER ACROSS MANITOBA...SASKATCHEWAN AND ONTARIO ***
                ***ONTARIO***

CITY           SKY/WX    TMP DP  RH WIND       PRES   REMARKS
GERALDTON      CLOUDY    64  63  94 SW7       30.07F
THUNDER BAY    MOSUNNY   77  68  73 S8        30.06F
SIOUX LOOKOUT  PTSUNNY   73  63  68 W3        30.06F
TORONTO        MOSUNNY   77  59  53 SE12      30.19F
BIG TROUT LK   PTSUNNY   72  61  68 NW12G20   29.90S
PICKLE LAKE    PTSUNNY   77  59  53 W14       29.99S
DRYDEN         MOSUNNY   75  61  60 W14       30.08S
KENORA         MOSUNNY   70  57  64 NW12G17   30.13S
$$
                *** MANITOBA***

CITY           SKY/WX    TMP DP  RH WIND       PRES   REMARKS
BRANDON        MOSUNNY   70  46  43 W16       30.20F
DAUPHIN        SUNNY     70  45  40 W20G25    30.17R
ISLAND LAKE    CLOUDY    63  52  67 W17G24    30.02S
PILOT MOUND      N/A     70  46  43 NW10        N/A
THE PAS        MOSUNNY   68  41  37 W23G32    30.07S
THOMPSON       CLOUDY    59  50  72 W14G25    29.95R
WINNIPEG       MOSUNNY   72  45  37 NW16      30.16S
LYNN LAKE      CLOUDY    57  50  77 MISG      29.98R
CHURCHILL      LGT RAIN  50  48  93 NE14      29.83R FOG
GILLAM         CLOUDY    61  52  72 W15G24    29.88R
$$
                ***SASKATCHEWAN***

CITY           SKY/WX    TMP DP  RH WIND       PRES   REMARKS
ESTEVAN        MOSUNNY   75  41  29 W5        30.24F
KINDERSLEY     MOSUNNY   70  45  40 E8G17     30.21F
LLOYDMINSTER   PTSUNNY   61  43  51 E6        30.23F
PRINCE ALBERT  MOSUNNY   66  41  39 NW14      30.21F
REGINA         MOSUNNY   70  43  37 VRB5      30.24F
YORKTON        SUNNY     66  45  45 W10       30.21F
N. BATTLEFORD  SUNNY     64  41  42 VRB2      30.25F
LA RONGE       MOSUNNY   63  41  45 NW15G24   30.16S
SASKATOON      PTSUNNY   66  43  42 NW3       30.24F
SWIFT CURRENT  SUNNY     72  46  40 SE13      30.21F
$$
NOTE: THESE ARE AUTOMATED STATIONS WITH LIMITED QUALITY CONTROL
      "FAIR" INDICATES FEW OR NO CLOUDS BELOW 12,000 FEET WITH NO
      SIGNIFICANT WEATHER AND/OR OBSTRUCTIONS TO VISIBILITY.
      SKY/WX - SKY CONDITION AND SIGNIFICANT WEATHER.
      TMP - AIR TEMPERATURE.    DP   - DEWPOINT TEMPERATURE.
      RH  - RELATIVE HUMIDITY.  PRES - PRESSURE.
      HX  - HEAT INDEX.         WCI  - WIND CHILL INDEX.
$




USA.gov is the U.S. government's official web portal to all federal, state and local government web resources and services.